Indianapolis Mount Comfort, IN

1:27 PM EST on December 06, 2019 (GMT -0500)
Mount Comfort

Weather History for KMQJ - June, 2019

Change the Weather History Date:

Sunday, June 9, 2019

  Actual Average (WUND) Record (WUND)
Temperature  
Mean Temperature 70 °F -  
Max Temperature 75 °F - - (-1)
Min Temperature 64 °F - - (-1)
Cooling Degree Days 4    
Growing Degree Days 20 (Base 50)    
Moisture  
Dew Point 69 °F    
Average Humidity 99    
Maximum Humidity 100    
Minimum Humidity 88    
Precipitation  
Precipitation 0.00 in - - ()
Sea Level Pressure  
Sea Level Pressure 29.93 in    
Wind  
Wind Speed 9 mph (ESE)    
Max Wind Speed 14 mph    
Max Gust Speed 18 mph    
Visibility 8 miles    
Events      
Averages and records for this station are not official NWS values.
T = Trace of Precipitation, MM = Missing Value Source: NWS Daily Summary

Daily Weather History Graph

Daily Weather History Graph

Search for Another Location

Airport or City:

Astronomy

Jun. 09, 2019 Rise Set
Actual Time 6:15 AM EDT 9:10 PM EDT
Civil Twilight 5:42 AM EDT 9:43 PM EDT
Nautical Twilight 5:01 AM EDT 10:24 PM EDT
Astronomical Twilight 4:14 AM EDT 11:12 PM EDT
Moon 12:52 PM EDT (6/9) 1:50 AM EDT (6/9)
Length of Visible Light 16h 00m
Length of Day
14h 55m
Waxing Crescent, 43% of the Moon is Illuminated
Jun 9
Waxing Crescent
Jun 10
First Quarter
Jun 17
Full
Jun 25
Last Quarter
Jul 2
New

Hourly Weather History & Observations

Time (EDT) Temp. Dew Point Humidity Pressure Visibility Wind Dir Wind Speed Gust Speed Precip Events Conditions
12:06 AM 69.8 °F 66.2 °F 88% 29.93 in 10.0 mi East 10.4 mph - N/A   Overcast
12:28 AM 69.8 °F 66.2 °F 88% 29.93 in 10.0 mi East 10.4 mph - N/A   Overcast
12:50 AM 69.8 °F 66.2 °F 88% 29.93 in 10.0 mi East 11.5 mph - N/A   Overcast
1:13 AM 69.8 °F 66.2 °F 88% 29.93 in 10.0 mi East 11.5 mph - N/A   Overcast
1:26 AM 68.0 °F 66.2 °F 94% 29.92 in 10.0 mi East 11.5 mph - N/A   Overcast
1:50 AM 68.0 °F 68.0 °F 100% 29.92 in 10.0 mi East 10.4 mph - N/A   Overcast
2:10 AM 68.0 °F 68.0 °F 100% 29.92 in 10.0 mi East 9.2 mph - N/A   Overcast
2:27 AM 66.2 °F 66.2 °F 100% 29.92 in 10.0 mi East 10.4 mph - N/A   Overcast
2:48 AM 66.2 °F 66.2 °F 100% 29.91 in 10.0 mi ESE 10.4 mph - N/A   Overcast
3:11 AM 66.2 °F 66.2 °F 100% 29.91 in 10.0 mi ESE 9.2 mph 17.3 mph N/A   Overcast
3:25 AM 66.2 °F 66.2 °F 100% 29.91 in 10.0 mi ESE 9.2 mph - N/A   Mostly Cloudy
3:46 AM 66.2 °F 66.2 °F 100% 29.91 in 10.0 mi ESE 10.4 mph - N/A   Mostly Cloudy
4:06 AM 66.2 °F 66.2 °F 100% 29.91 in 10.0 mi ESE 8.1 mph - N/A   Mostly Cloudy
4:26 AM 66.2 °F 66.2 °F 100% 29.90 in 10.0 mi ESE 8.1 mph - N/A   Overcast
4:48 AM 66.2 °F 66.2 °F 100% 29.91 in 7.0 mi East 8.1 mph - N/A   Overcast
5:09 AM 66.2 °F 66.2 °F 100% 29.91 in 7.0 mi East 6.9 mph - N/A   Overcast
5:28 AM 66.2 °F 66.2 °F 100% 29.91 in 10.0 mi East 6.9 mph - N/A   Overcast
5:48 AM 64.4 °F 64.4 °F 100% 29.91 in 7.0 mi East 6.9 mph - N/A   Overcast
6:07 AM 66.2 °F 66.2 °F 100% 29.92 in 7.0 mi East 9.2 mph - N/A   Overcast
6:27 AM 64.4 °F 64.4 °F 100% 29.92 in 7.0 mi East 9.2 mph - N/A   Overcast
6:47 AM 64.4 °F 64.4 °F 100% 29.92 in 5.0 mi East 8.1 mph - N/A   Overcast
7:02 AM 64.4 °F 64.4 °F 100% 29.93 in 5.0 mi East 10.4 mph - N/A   Overcast
7:25 AM 64.4 °F 64.4 °F 100% 29.93 in 5.0 mi East 10.4 mph - N/A   Overcast
7:47 AM 64.4 °F 64.4 °F 100% 29.94 in 7.0 mi ESE 10.4 mph - N/A   Overcast
8:05 AM 66.2 °F 66.2 °F 100% 29.94 in 5.0 mi East 10.4 mph - N/A   Overcast
8:25 AM 66.2 °F 66.2 °F 100% 29.94 in 7.0 mi East 8.1 mph - N/A   Overcast
8:49 AM 66.2 °F 66.2 °F 100% 29.94 in 5.0 mi East 10.4 mph - N/A   Overcast
9:07 AM 66.2 °F 66.2 °F 100% 29.95 in 5.0 mi ESE 8.1 mph - N/A   Overcast
9:26 AM 66.2 °F 66.2 °F 100% 29.95 in 5.0 mi ESE 10.4 mph - N/A   Overcast
9:46 AM 66.2 °F 66.2 °F 100% 29.95 in 10.0 mi ESE 9.2 mph - N/A   Overcast
10:04 AM 66.2 °F 66.2 °F 100% 29.96 in 7.0 mi ESE 9.2 mph - N/A   Overcast
10:27 AM 66.2 °F 66.2 °F 100% 29.96 in 7.0 mi ESE 10.4 mph - N/A   Overcast
10:46 AM 66.2 °F 66.2 °F 100% 29.95 in 4.0 mi ESE 8.1 mph - N/A   Overcast
11:06 AM 66.2 °F 66.2 °F 100% 29.95 in 4.0 mi ESE 10.4 mph - N/A   Overcast
11:24 AM 66.2 °F 66.2 °F 100% 29.95 in 2.5 mi ESE 6.9 mph - N/A   Overcast
11:45 AM 68.0 °F 68.0 °F 100% 29.95 in 4.0 mi ESE 8.1 mph - N/A   Overcast
12:05 PM 68.0 °F 68.0 °F 100% 29.94 in 2.5 mi ESE 10.4 mph - N/A   Overcast
12:26 PM 69.8 °F 69.8 °F 100% 29.94 in 10.0 mi ESE 10.4 mph - N/A   Overcast
12:44 PM 71.6 °F 71.6 °F 100% 29.94 in 10.0 mi ESE 9.2 mph - N/A   Overcast
1:05 PM 73.4 °F 73.4 °F 100% 29.94 in 10.0 mi SE 13.8 mph 18.4 mph N/A   Overcast
1:26 PM 71.6 °F 71.6 °F 100% 29.94 in 10.0 mi SE 9.2 mph 16.1 mph N/A   Overcast
1:48 PM 71.6 °F 71.6 °F 100% 29.93 in 10.0 mi SE 11.5 mph - N/A   Overcast
2:06 PM 73.4 °F 73.4 °F 100% 29.93 in 10.0 mi ESE 9.2 mph - N/A   Overcast
2:22 PM 73.4 °F 71.6 °F 94% 29.93 in 10.0 mi SE 9.2 mph - N/A   Overcast
2:42 PM 71.6 °F 71.6 °F 100% 29.93 in 10.0 mi SE 8.1 mph - N/A   Overcast
3:06 PM 71.6 °F 71.6 °F 100% 29.93 in 10.0 mi ESE 8.1 mph - N/A   Overcast
3:26 PM 73.4 °F 71.6 °F 94% 29.93 in 10.0 mi ESE 6.9 mph - N/A   Overcast
3:50 PM 75.2 °F 73.4 °F 94% 29.92 in 10.0 mi ESE 10.4 mph - N/A   Overcast
4:06 PM 75.2 °F 73.4 °F 94% 29.92 in 10.0 mi ESE 11.5 mph - N/A   Overcast
4:23 PM 75.2 °F 73.4 °F 94% 29.92 in 10.0 mi SE 8.1 mph - N/A   Overcast
4:44 PM 75.2 °F 73.4 °F 94% 29.92 in 10.0 mi East 11.5 mph - N/A   Overcast
5:06 PM 75.2 °F 73.4 °F 94% 29.92 in 10.0 mi ESE 6.9 mph - N/A   Overcast
5:28 PM 75.2 °F 73.4 °F 94% 29.92 in 10.0 mi ESE 5.8 mph - N/A   Overcast
5:49 PM 73.4 °F 73.4 °F 100% 29.93 in 7.0 mi ESE 4.6 mph - N/A   Overcast
6:06 PM 69.8 °F 69.8 °F 100% 29.93 in 1.0 mi South 6.9 mph - N/A   Overcast
6:28 PM 69.8 °F 69.8 °F 100% 29.93 in 0.5 mi Calm Calm - N/A   Overcast
6:47 PM 71.6 °F 71.6 °F 100% 29.93 in 4.0 mi Calm Calm - N/A   Mostly Cloudy
7:09 PM 71.6 °F 71.6 °F 100% 29.93 in 10.0 mi North 3.5 mph - N/A   Mostly Cloudy
7:26 PM 71.6 °F 71.6 °F 100% 29.93 in 7.0 mi East 3.5 mph - N/A   Overcast
7:44 PM 71.6 °F 71.6 °F 100% 29.93 in 1.2 mi East 3.5 mph - N/A   Overcast
8:09 PM 71.6 °F 71.6 °F 100% 29.93 in 7.0 mi Calm Calm - N/A   Overcast
8:28 PM 71.6 °F 71.6 °F 100% 29.93 in 7.0 mi Calm Calm - N/A   Overcast
8:48 PM 71.6 °F 71.6 °F 100% 29.94 in 7.0 mi Calm Calm - N/A   Overcast
9:09 PM 69.8 °F 69.8 °F 100% 29.93 in 7.0 mi East 4.6 mph - N/A   Overcast
9:24 PM 71.6 °F 71.6 °F 100% 29.94 in 5.0 mi ESE 6.9 mph - N/A   Overcast
9:47 PM 69.8 °F 69.8 °F 100% 29.94 in 3.0 mi SSE 6.9 mph - N/A   Overcast
10:10 PM 68.0 °F 68.0 °F 100% 29.94 in 5.0 mi SSE 6.9 mph - N/A   Overcast
10:26 PM 68.0 °F 68.0 °F 100% 29.94 in 10.0 mi South 6.9 mph - N/A   Overcast
10:47 PM 68.0 °F 68.0 °F 100% 29.94 in 7.0 mi SSE 3.5 mph - N/A   Overcast
11:02 PM 68.0 °F 68.0 °F 100% 29.94 in 10.0 mi Calm Calm - N/A   Mostly Cloudy
11:27 PM 68.0 °F 68.0 °F 100% 29.94 in 10.0 mi Calm Calm - N/A   Overcast
11:48 PM 68.0 °F 68.0 °F 100% 29.93 in 7.0 mi Calm Calm - N/A   Mostly Cloudy